Terminal Aerodrome Forecast
Issued by NWS

Home | Current Version | Previous Version | Text Only | Print | Product List | Glossary On
Versions: 1 2 3 4 5 6 7 8 9 10 11 12 13 14 15 16 17 18 19 20 21 22 23 24 25 26 27 28 29 30 31 32 33 34 35 36 37 38 39 40 41 42 43 44
000
FTUS45 KSLC 222331
TAFENV
TAF
KENV 222331Z 2300/2324 17010KT P6SM VCSH SCT070 BKN120
      TEMPO 2300/2301 VRB20G40KT 6SM -TSRA BKN070CB
     FM230100 17010KT P6SM SCT070 BKN100
     FM230300 29008KT P6SM BKN100
     FM230900 VRB05KT P6SM SCT100 BKN150
     FM231600 34012KT P6SM SCT100
      AMD LTD TO CLD VIS AND WIND=

USA.gov is the U.S. government's official web portal to all federal, state and local government web resources and services.